This is the latest recevied weather packets stored in our database for station/object SQ2CDE-4. If no packets are shown the sender has not sent any weather packets the latest 10 day(s).
| Time | Temp. | Humidity | Pressure | Rain* | Wind** | Luminosity | Snow |
|---|---|---|---|---|---|---|---|
| 1777431829 | -1.11° C | 86% | 1028 hPa | - | - | - | - |
| 1777427607 | 0° C | 86% | 1028 hPa | - | - | - | - |
| 1777425799 | 0° C | 86% | 1028 hPa | - | - | - | - |
| 1777425194 | 0° C | 86% | 1028 hPa | - | - | - | - |
| 1777424590 | 0° C | 86% | 1028 hPa | - | - | - | - |
| 1777423989 | 0° C | 86% | 1028 hPa | - | - | - | - |
| 1777422185 | 0° C | 86% | 1028 hPa | - | - | - | - |
| 1777420978 | 0° C | 86% | 1028 hPa | - | - | - | - |
| 1777419172 | 0° C | 86% | 1028 hPa | - | - | - | - |
| 1777418569 | 0° C | 86% | 1028 hPa | - | - | - | - |
| 1777411345 | 2.78° C | 81% | 1028 hPa | - | - | - | - |
| 1777407732 | 2.78° C | 75% | 1028 hPa | - | - | - | - |
| 1777407131 | 2.78° C | 75% | 1028 hPa | - | - | - | - |
| 1777405329 | 2.78° C | 70% | 1027 hPa | - | - | - | - |
| 1777401115 | 5° C | 56% | 1027 hPa | - | - | - | - |
| 1777398698 | 6.11° C | 52% | 1027 hPa | - | - | - | - |
| 1777396887 | 7.22° C | 53% | 1027 hPa | - | - | - | - |
| 1777396285 | 7.22° C | 53% | 1027 hPa | - | - | - | - |
| 1777395684 | 7.22° C | 53% | 1027 hPa | - | - | - | - |
| 1777395081 | 7.22° C | 53% | 1027 hPa | - | - | - | - |
| 1777393875 | 7.22° C | 49% | 1027 hPa | - | - | - | - |
| 1777393270 | 7.22° C | 49% | 1027 hPa | - | - | - | - |
| 1777390856 | 7.78° C | 49% | 1026 hPa | - | - | - | - |
| 1777390255 | 7.78° C | 39% | 1026 hPa | - | - | - | - |
| 1777389652 | 7.78° C | 39% | 1026 hPa | - | - | - | - |
* Rain since midnight (hover to see other rain measurements)
** Current wind speed in m/s (hover to see current wind gust speed)